Wind_Speed
6 5 5 5 5 4 4 3 3 2 2 2 1 1 1 1 1 1 2 1 2 2 3 3 4 4 4 4 4 4 4 4 4 5 6 6 6 7 7 7 8 8 8
4 4 4 4 4 3 3 2 2 1 1 0 0 1 1 2 2 2 2 2 3 3 3 4 5 5 6 5 5 5 6 6 6 7 7 8 8 8 8 8 9 9 10
3 3 2 2 2 2 2 2 2 1 1 1 1 1 2 3 4 4 4 4 4 4 5 5 6 7 7 7 7 7 7 7 8 8 9 9 9 9 10 10 10 11 11
2 2 2 1 1 1 1 2 2 2 2 2 3 3 4 4 4 5 5 5 6 6 6 6 7 8 8 9 8 8 9 9 10 10 11 11 11 11 11 12 12 12 12
1 1 0 0 1 1 2 2 3 3 3 4 5 5 6 5 6 6 7 7 7 7 7 7 7 8 9 10 10 10 11 11 11 13 13 13 12 13 13 14 14 14 14
2 1 1 2 2 2 3 3 4 4 5 5 6 7 7 8 7 8 8 8 8 8 8 8 9 9 9 9 10 11 12 13 13 13 14 14 14 14 14 14 14 15 15
3 3 2 3 3 4 4 4 5 5 6 6 7 7 8 9 9 9 9 9 10 10 10 10 11 11 11 11 12 13 13 14 14 14 14 14 14 15 15 15 15 15 15
4 4 4 4 4 5 5 5 6 6 7 7 8 8 8 9 9 8 9 9 10 12 12 12 12 13 12 13 13 14 14 15 15 15 14 15 15 15 16 16 15 15 16
5 4 4 5 5 6 6 7 7 7 7 8 8 9 9 9 9 10 11 11 12 12 12 12 13 13 14 14 15 15 15 15 14 14 15 16 16 16 17 16 16 17 17
6 6 5 5 6 7 7 8 9 9 9 9 9 9 10 10 11 11 12 12 13 14 14 14 14 14 14 15 15 15 15 15 15 15 15 15 16 16 17 17 18 18 18
7 7 7 6 6 7 8 8 9 9 9 10 10 11 11 11 12 13 13 13 14 14 15 15 15 15 15 15 14 14 14 14 14 15 15 16 16 17 18 18 18 18 19
8 8 8 8 8 8 8 9 9 9 10 10 11 12 12 12 12 13 13 14 14 14 15 15 15 15 15 14 14 14 14 14 14 14 14 15 16 16 17 17 17 18 18
9 10 9 9 9 9 9 9 10 11 11 11 12 12 12 12 13 13 14 14 14 14 15 15 14 14 14 14 14 14 14 14 14 14 15 16 17 17 16 16 17 17 18
10 10 11 10 10 10 10 10 11 11 11 11 12 12 12 12 13 13 14 15 15 14 14 14 14 14 14 14 14 14 14 15 15 15 16 16 16 16 16 15 17 18 18
11 12 12 12 12 11 11 10 10 11 11 11 12 12 12 13 13 14 14 14 14 14 14 14 14 14 14 14 14 15 14 15 15 15 15 15 15 16 16 17 17 18 19
13 13 13 13 12 12 11 11 11 11 12 12 12 13 13 14 14 14 14 14 14 14 14 15 15 14 14 13 14 14 14 15 15 15 15 15 16 16 17 17 18 18 19
13 14 14 13 13 13 12 12 12 12 12 12 13 13 14 14 14 14 14 14 14 14 15 15 15 14 13 14 14 14 14 14 14 14 15 16 16 16 17 18 19 19 20
13 14 14 14 14 14 14 13 13 13 13 13 13 14 14 14 14 14 14 13 13 14 14 15 14 13 14 14 14 15 15 15 15 15 16 16 17 17 18 19 20 20 20
14 14 15 15 15 15 15 14 14 14 14 14 14 14 14 15 15 14 14 14 13 13 13 14 13 14 14 15 15 15 15 16 16 16 17 17 18 18 19 20 20 20 21
15 15 15 15 16 16 15 15 15 15 15 15 15 15 15 15 15 15 15 14 14 14 14 14 13 14 14 15 15 15 16 17 17 17 17 18 18 18 19 20 20 20 21
16 16 16 16 16 17 16 15 15 15 15 15 16 16 16 15 15 15 15 15 15 15 14 14 14 15 15 15 15 15 16 16 16 17 17 17 18 19 19 20 21 21 22
18 18 18 18 18 18 17 17 16 17 17 17 16 15 15 15 15 15 15 15 15 15 15 14 15 15 16 16 16 17 17 17 17 18 18 18 19 20 20 21 22 23 23
19 19 19 19 18 18 18 18 18 18 18 17 16 15 15 14 14 14 15 14 14 15 15 16 16 16 16 17 17 17 18 18 19 19 19 20 21 21 22 22 23 24 24
20 21 20 20 20 20 20 19 19 19 19 18 16 15 15 15 14 14 15 15 16 16 17 17 17 17 18 18 18 19 19 19 20 20 21 22 22 22 23 24 24 25 25
22 23 22 22 22 23 22 21 20 20 19 17 16 16 16 16 15 16 16 16 17 18 18 18 18 18 19 19 20 20 19 20 20 22 23 23 23 24 24 25 25 25 26
24 24 24 24 24 24 22 22 21 20 20 18 18 17 16 17 17 18 18 18 18 18 19 19 19 20 20 20 20 20 21 21 22 23 23 24 24 25 25 26 26 26 26
Wind_Direction
109 123 135 135 145 145 135 127 130 120 117 106 102 87 25 23 324 294 286 299 301 294 295 284 273 274 287 297 298 298 294 285 287 291 293 294 293 291 289 288 288 285 285
108 110 123 123 131 141 151 148 144 136 123 93 16 358 322 311 309 309 297 289 292 290 296 288 279 280 282 289 291 287 289 282 284 288 288 289 291 290 288 284 285 283 282
114 111 118 124 139 144 160 189 205 217 271 300 319 321 299 295 290 286 289 290 291 294 296 289 287 287 285 285 284 286 288 284 286 287 287 286 285 286 286 283 283 284 283
112 118 123 135 177 202 216 224 241 257 269 281 286 290 294 300 290 285 286 285 286 287 295 294 286 286 287 287 283 284 285 286 286 285 283 283 282 281 284 285 283 283 284
59 85 142 234 272 280 270 266 269 276 276 279 282 286 297 298 293 287 288 286 287 289 293 299 292 288 286 284 278 279 283 286 290 286 281 279 277 278 284 285 281 280 280
12 336 293 290 287 296 290 288 290 289 286 281 282 286 291 293 293 292 289 288 289 289 290 292 295 289 285 281 278 279 282 285 289 289 283 279 276 277 281 283 281 279 279
355 332 308 287 285 293 295 293 296 295 290 287 285 284 284 285 292 291 290 289 288 289 287 290 294 287 281 279 280 282 281 285 287 286 283 279 277 279 280 279 278 278 278
353 336 324 309 297 293 295 291 294 294 290 286 284 285 288 289 288 291 289 291 290 291 287 286 285 286 280 279 281 282 282 284 283 282 282 280 277 277 279 281 277 275 275
4 351 334 322 311 301 295 294 289 288 288 288 288 287 290 294 292 290 291 291 290 288 287 285 285 283 280 279 282 283 284 282 280 279 278 278 278 278 279 278 277 276 274
3 353 341 330 318 309 305 302 299 290 288 285 286 287 288 289 290 293 294 293 292 291 290 290 288 286 283 282 280 282 283 283 278 278 275 274 276 278 279 279 278 277 276
1 352 341 330 324 316 310 308 308 302 296 292 288 286 289 290 289 291 292 293 291 292 291 289 288 285 283 281 280 280 281 282 280 277 274 273 275 279 280 277 277 276 274
360 353 342 335 329 323 314 309 308 305 304 301 296 293 292 293 294 293 294 295 295 295 294 291 288 285 283 280 280 281 281 279 279 277 277 278 280 283 283 278 279 278 275
359 354 345 339 335 329 319 313 309 307 302 303 300 300 298 297 294 293 294 295 295 295 295 292 286 284 283 282 284 282 279 277 279 280 281 281 280 280 280 276 281 283 278
354 350 347 343 337 330 324 318 313 309 306 306 304 303 302 300 299 297 297 295 294 294 295 292 287 284 284 282 285 284 280 277 280 282 282 281 281 280 279 281 280 281 281
353 349 345 341 338 332 325 321 318 313 310 309 305 305 304 302 300 299 299 298 295 291 292 295 293 289 287 287 285 283 281 280 282 283 284 283 282 281 280 283 283 283 285
351 348 343 342 339 337 329 322 317 316 313 308 303 304 303 300 299 297 297 296 293 289 289 292 291 290 288 287 286 286 285 283 284 285 285 284 283 282 283 283 284 285 286
350 351 350 346 343 339 333 326 319 315 312 308 304 302 300 300 299 298 297 296 296 293 291 291 290 287 287 285 284 285 287 286 288 288 287 287 285 284 285 286 286 287 287
342 343 343 343 341 338 332 325 319 314 310 306 304 302 299 298 299 301 300 298 297 295 293 290 289 287 285 283 283 284 284 285 286 288 290 290 288 288 288 288 289 288 287
336 337 337 338 336 334 332 328 323 317 312 308 305 302 299 297 297 300 300 299 298 297 295 292 291 289 287 286 286 285 286 287 287 288 290 289 289 290 290 291 291 290 290
327 328 330 331 329 328 328 325 321 318 315 311 309 305 301 297 296 297 297 296 296 297 295 291 289 290 291 292 290 288 287 287 290 291 292 292 291 291 291 292 294 293 292
320 321 323 323 324 325 325 324 322 320 316 311 309 305 301 298 296 295 296 295 295 295 292 291 290 291 291 292 292 292 292 291 290 292 294 294 292 292 293 294 295 295 294
314 317 317 318 319 320 320 320 320 321 319 315 312 309 302 298 297 297 296 294 294 295 293 293 292 292 290 292 291 291 291 291 290 291 292 293 293 293 293 294 295 296 296
307 310 311 313 312 314 318 319 320 319 319 318 316 313 311 307 304 303 300 299 298 296 294 293 292 292 292 292 291 291 291 290 290 291 292 292 293 293 293 293 294 295 296
304 304 308 309 312 312 311 313 315 316 317 318 316 314 311 310 309 306 302 300 299 297 295 294 294 294 293 291 292 291 291 291 291 292 293 293 293 293 293 293 293 293 294
304 304 306 308 308 309 305 305 308 310 313 314 315 315 313 311 308 305 303 302 300 298 295 295 295 296 295 293 293 293 293 293 292 294 294 294 295 295 295 294 293 293 293
301 303 304 304 305 307 306 305 305 304 307 309 309 309 309 309 308 305 304 303 301 300 298 295 294 294 295 296 295 294 294 294 294 294 295 295 295 295 295 296 295 294 295
Height
5896 5896 5897 5897 5897 5897 5897 5898 5898 5898 5898 5898 5898 5898 5897 5897 5896 5896 5895 5895 5894 5894 5893 5893 5892 5892 5891 5891 5890 5890 5889 5888 5888 5887 5887 5886 5886 5885 5884 5884 5883 5883 5882
5897 5898 5898 5898 5898 5898 5898 5898 5898 5898 5898 5898 5898 5898 5897 5897 5896 5895 5895 5894 5894 5893 5892 5892 5891 5891 5890 5889 5889 5888 5888 5887 5886 5886 5885 5884 5884 5883 5882 5882 5881 5881 5880
5898 5898 5898 5898 5899 5899 5899 5898 5898 5898 5898 5898 5897 5897 5896 5896 5895 5894 5894 5893 5893 5892 5891 5891 5890 5889 5888 5888 5887 5887 5886 5885 5885 5884 5883 5882 5882 5881 5880 5880 5879 5879 5878
5899 5899 5899 5899 5899 5899 5899 5898 5898 5898 5898 5897 5897 5896 5895 5895 5894 5894 5893 5892 5891 5891 5890 5889 5888 5887 5887 5886 5886 5885 5884 5884 5883 5882 5881 5880 5880 5879 5878 5878 5877 5876 5875
5899 5899 5899 5899 5899 5899 5898 5898 5898 5898 5897 5896 5896 5895 5894 5894 5893 5892 5891 5890 5890 5889 5888 5887 5886 5886 5885 5884 5884 5883 5882 5881 5881 5880 5879 5878 5877 5876 5876 5875 5874 5873 5872
5899 5899 5899 5898 5898 5898 5898 5897 5897 5897 5896 5895 5895 5894 5893 5893 5892 5891 5890 5889 5888 5887 5887 5886 5885 5883 5883 5882 5881 5880 5880 5879 5878 5877 5876 5875 5874 5873 5873 5872 5871 5870 5869
5899 5898 5898 5898 5898 5897 5897 5897 5896 5895 5895 5894 5893 5892 5892 5891 5890 5889 5888 5887 5886 5885 5884 5883 5882 5881 5880 5879 5878 5877 5876 5875 5874 5873 5872 5872 5871 5870 5869 5868 5867 5866 5866
5898 5898 5898 5897 5897 5896 5896 5895 5895 5894 5893 5893 5892 5891 5890 5890 5888 5887 5886 5885 5884 5883 5882 5880 5879 5878 5877 5876 5875 5874 5873 5872 5871 5870 5869 5868 5867 5866 5866 5864 5863 5863 5862
5898 5898 5897 5896 5895 5895 5894 5893 5893 5892 5892 5891 5890 5889 5888 5887 5886 5885 5884 5883 5882 5880 5879 5876 5876 5875 5874 5873 5872 5870 5869 5868 5867 5866 5865 5864 5863 5863 5861 5860 5859 5859 5858
5898 5897 5896 5895 5894 5893 5893 5892 5891 5890 5889 5888 5887 5887 5886 5885 5884 5882 5881 5880 5879 5877 5875 5873 5872 5871 5870 5869 5868 5866 5865 5864 5863 5862 5861 5860 5859 5858 5857 5856 5855 5854 5853
5897 5896 5895 5894 5893 5892 5891 5890 5889 5888 5887 5886 5885 5884 5883 5882 5881 5880 5878 5877 5875 5874 5872 5870 5869 5867 5866 5865 5864 5862 5861 5860 5859 5858 5857 5856 5855 5854 5853 5852 5851 5850 5849
5897 5895 5894 5892 5891 5890 5889 5888 5887 5886 5885 5883 5882 5881 5879 5879 5878 5876 5875 5873 5872 5870 5868 5867 5865 5864 5862 5861 5860 5859 5857 5856 5855 5854 5853 5852 5851 5850 5849 5847 5846 5845 5844
5896 5894 5893 5891 5890 5888 5887 5886 5884 5883 5882 5881 5879 5878 5877 5875 5874 5873 5871 5870 5868 5867 5865 5863 5861 5860 5859 5857 5856 5855 5854 5853 5852 5850 5849 5848 5847 5846 5844 5843 5841 5841 5839
5896 5894 5892 5890 5888 5886 5885 5883 5882 5880 5879 5877 5876 5875 5873 5872 5871 5869 5868 5866 5864 5863 5861 5859 5857 5856 5855 5854 5852 5851 5850 5849 5848 5846 5845 5844 5843 5842 5840 5839 5838 5837 5835
5895 5893 5891 5889 5887 5884 5883 5881 5879 5878 5876 5875 5873 5872 5870 5869 5868 5866 5864 5862 5861 5859 5858 5855 5853 5852 5851 5850 5849 5848 5846 5845 5844 5842 5841 5840 5838 5837 5836 5835 5834 5832 5830
5894 5891 5889 5887 5885 5882 5880 5878 5877 5875 5873 5871 5870 5868 5867 5865 5864 5862 5860 5858 5857 5856 5854 5852 5850 5848 5847 5846 5845 5844 5842 5841 5840 5838 5837 5836 5834 5833 5832 5830 5829 5827 5825
5892 5889 5887 5885 5883 5880 5878 5876 5874 5872 5870 5868 5866 5865 5863 5862 5860 5858 5856 5854 5853 5851 5850 5848 5846 5844 5843 5842 5841 5840 5839 5837 5836 5834 5833 5831 5830 5828 5827 5826 5824 5822 5820
5890 5888 5886 5883 5881 5878 5876 5873 5871 5869 5867 5865 5863 5861 5859 5857 5856 5854 5852 5850 5849 5848 5846 5844 5842 5841 5839 5838 5837 5836 5835 5833 5831 5830 5828 5827 5825 5824 5822 5820 5819 5817 5815
5888 5886 5883 5881 5878 5876 5873 5870 5868 5865 5863 5861 5859 5857 5855 5853 5851 5850 5848 5846 5845 5843 5842 5841 5839 5837 5836 5834 5833 5831 5830 5829 5827 5825 5824 5822 5820 5819 5817 5815 5813 5812 5810
5886 5883 5881 5879 5876 5873 5870 5867 5864 5862 5859 5857 5855 5852 5851 5849 5847 5845 5844 5842 5841 5839 5838 5836 5835 5833 5832 5830 5828 5827 5826 5824 5822 5821 5819 5817 5815 5813 5812 5810 5808 5806 5804
5883 5880 5878 5876 5873 5870 5867 5864 5861 5858 5855 5853 5850 5848 5846 5844 5842 5841 5840 5838 5836 5835 5833 5832 5830 5829 5827 5826 5824 5823 5821 5819 5818 5816 5814 5812 5811 5809 5807 5805 5803 5801 5798
5879 5877 5875 5872 5870 5867 5864 5860 5857 5854 5851 5848 5846 5843 5841 5840 5838 5837 5835 5833 5832 5831 5829 5827 5826 5824 5823 5821 5820 5818 5816 5815 5813 5812 5809 5808 5806 5803 5801 5799 5797 5795 5792
5876 5873 5871 5869 5866 5863 5860 5857 5854 5851 5847 5845 5842 5840 5838 5836 5834 5832 5831 5829 5828 5826 5825 5823 5821 5820 5818 5816 5815 5813 5811 5810 5808 5806 5804 5802 5800 5798 5796 5793 5791 5788 5786
5871 5869 5866 5864 5861 5858 5856 5853 5850 5847 5844 5841 5838 5836 5834 5832 5831 5829 5827 5825 5823 5822 5820 5818 5817 5815 5813 5811 5809 5808 5806 5804 5803 5800 5798 5796 5794 5792 5789 5787 5784 5782 5779
5866 5864 5861 5859 5856 5854 5851 5848 5845 5843 5840 5837 5835 5832 5830 5828 5827 5825 5823 5821 5819 5817 5815 5813 5811 5809 5807 5805 5804 5802 5800 5798 5797 5794 5792 5790 5787 5785 5783 5780 5777 5775 5772
5860 5858 5856 5854 5851 5848 5845 5843 5840 5838 5836 5833 5830 5828 5826 5824 5822 5820 5818 5816 5814 5812 5810 5808 5806 5804 5802 5800 5798 5796 5794 5792 5790 5788 5786 5783 5780 5778 5776 5773 5770 5768 5765